{"data":{"norad_id":47739,"intl_designator":"2021-017T","name":"STARLINK-2150","alt_names":[],"object_type":"PAYLOAD","status":"ACTIVE","operator":null,"country":"US","launch_date":"2021-03-04","launch_site_code":"AFETR","launch_vehicle":null,"mission":null,"orbit_class":"UNKNOWN","rcs_meters":null,"size_class":null,"mass_kg":null,"dimensions":null,"purposes":["comms"],"wikipedia_slug":null,"has_3d_model":false,"image_url":null,"decayed_at":null,"tle_current":{"epoch":"2026-09-20T00:44:08.820960Z","epoch_age_seconds":67663,"freshness":"FRESH","line1":"1 47739U 21017T   26263.03065765 -.00000130  00000+0  75813-5 0  9995","line2":"2 47739  53.1603  34.7811 0001341  96.4014 263.7140 15.31690476307462","mean_motion":15.31690476,"eccentricity":0.0001341,"inclination_deg":53.1603,"raan_deg":34.7811,"arg_perigee_deg":96.4014,"mean_anomaly_deg":263.714,"bstar":7.5813e-6,"rev_number":30746,"period_min":94.013772531938,"perigee_km":469.84994770892,"apogee_km":471.68682413342,"semimajor_km":6848.9053859212,"source":"CELESTRAK","updated_at":"2026-09-20T09:00:38.600995Z"}}}